Weather History for MMAA - November, 2012

Change the Weather History Date:

Sunday, November 4, 2012

  Actual Average Record
Temperature  
Mean Temperature 83 °F -  
Max Temperature 93 °F 90 °F 93 °F (2012)
Min Temperature 73 °F 74 °F 73 °F (1999)
Cooling Degree Days 18    
Growing Degree Days 33 (Base 50)    
Moisture  
Dew Point 72 °F    
Average Humidity 71    
Maximum Humidity 97    
Minimum Humidity 40    
Precipitation  
Precipitation 0.00 in 0.06 in - ()
Sea Level Pressure  
Sea Level Pressure 29.88 in    
Wind  
Wind Speed 1 mph ()    
Max Wind Speed 6 mph    
Max Gust Speed -    
Visibility 8.3 miles    
Events      
Averages and records for this station are not official NWS values.
T = Trace of Precipitation, MM = Missing Value Source: Averaged Metar Reports

Daily Weather History Graph

Daily Weather History Graph

Search for Another Location

Airport or City:

Trip Planner

Search our weather history database for the weather conditions in past years. The results will help you decide how hot, cold, wet, or windy it might be!

Date:

Astronomy

Nov. 04, 2012 Rise Set
Actual Time 6:38 AM CST 6:06 PM CST
Civil Twilight 6:15 AM CST 6:29 PM CST
Nautical Twilight 5:50 AM CST 6:54 PM CST
Astronomical Twilight 5:24 AM CST 7:20 PM CST
Moon 10:52 PM CST (11/4) 11:14 AM CST (11/4)
Length of Visible Light 12h 13m
Length of Day
11h 28m
Waning Gibbous, 72% of the Moon is Illuminated
Nov 4
Waning Gibbous
Nov 6
Last Quarter
Nov 13
New
Nov 20
First Quarter
Nov 28
Full

Hourly Weather History & Observations

Time (CST) Temp. Heat Index Dew Point Humidity Pressure Visibility Wind Dir Wind Speed Gust Speed Precip Events Conditions
12:42 AM 78.8 °F - 73.4 °F 83% 29.90 in 8.0 mi Calm Calm - N/A   Overcast
1:42 AM 78.8 °F - 73.4 °F 83% 29.90 in 8.0 mi Calm Calm - N/A   Overcast
2:42 AM 78.8 °F - 73.4 °F 83% 29.88 in 8.0 mi Calm Calm - N/A   Mostly Cloudy
3:42 AM 78.8 °F - 73.4 °F 83% 29.90 in 8.0 mi Calm Calm - N/A   Mostly Cloudy
4:42 AM 77.0 °F - 73.4 °F 89% 29.90 in 8.0 mi Calm Calm - N/A   Mostly Cloudy
5:40 AM 74 °F - 73 °F 97% 29.86 in 6 mi North 2.2 mph - -   Scattered Clouds
5:45 AM 77.0 °F - 73.4 °F 89% 29.88 in 8.0 mi Calm Calm - N/A   Scattered Clouds
6:42 AM 75.2 °F - 71.6 °F 89% 29.87 in 8.0 mi Calm Calm - N/A   Mostly Cloudy
7:45 AM 78.8 °F - 75.2 °F 89% 29.89 in 8.0 mi Calm Calm - N/A   Mostly Cloudy
8:45 AM 79 °F - 72 °F 75% 29.89 in 12 mi NW 2.2 mph - -   Partly Cloudy
8:45 AM 84.2 °F 92.3 °F 75.2 °F 74% 29.90 in 8.0 mi Calm Calm - N/A   Mostly Cloudy
9:44 AM 86.0 °F 99.3 °F 78.8 °F 79% 29.90 in 8.0 mi Calm Calm - N/A   Mostly Cloudy
10:43 AM 86.0 °F 99.3 °F 78.8 °F 79% 29.91 in 8.0 mi Calm Calm - N/A   Mostly Cloudy
11:40 AM 89 °F - 73 °F 50% 29.88 in 12 mi SE 2.2 mph - -   Partly Cloudy
11:43 AM 87.8 °F 95.6 °F 73.4 °F 62% 29.87 in 8.0 mi Calm Calm - N/A   Mostly Cloudy
12:43 PM 89.6 °F 96.2 °F 71.6 °F 55% 29.88 in 8.0 mi Calm Calm - N/A   Mostly Cloudy
1:43 PM 89.6 °F 94.7 °F 69.8 °F 52% 29.87 in 8.0 mi WSW 5.8 mph - N/A   Mostly Cloudy
2:45 PM 90 °F - 69 °F 40% 29.81 in 12 mi West 2.2 mph - -   Mostly Cloudy
2:45 PM 87.8 °F 92.6 °F 69.8 °F 55% 29.83 in 8.0 mi WSW 5.8 mph - N/A   Overcast
3:43 PM 87.8 °F 92.6 °F 69.8 °F 55% 29.85 in 8.0 mi WSW 5.8 mph - N/A   Overcast
4:42 PM 87.8 °F 92.6 °F 69.8 °F 55% 29.86 in 8.0 mi WSW 5.8 mph - N/A   Overcast
5:45 PM 84 °F - 70 °F 54% 29.86 in 12 mi West 2.2 mph - -   Overcast
5:45 PM 86.0 °F 90.4 °F 69.8 °F 58% 29.88 in 8.0 mi WSW 5.8 mph - N/A   Overcast
6:45 PM 84.2 °F 88.4 °F 69.8 °F 62% 29.89 in 8.0 mi Calm Calm - N/A   Overcast
7:42 PM 84.2 °F 88.4 °F 69.8 °F 62% 29.91 in 8.0 mi Calm Calm - N/A   Overcast
8:45 PM 84.2 °F 89.6 °F 71.6 °F 66% 29.90 in 8.0 mi Calm Calm - N/A   Overcast
8:50 PM 80 °F - 72 °F 71% 29.92 in 6 mi NNW 2.2 mph - -   Overcast
9:43 PM 82.4 °F 88.2 °F 73.4 °F 74% 29.92 in 8.0 mi Calm Calm - N/A   Mostly Cloudy
10:43 PM 80.6 °F 84.6 °F 71.6 °F 74% 29.91 in 8.0 mi Calm Calm - N/A   Mostly Cloudy
11:43 PM 78.8 °F - 73.4 °F 83% 29.89 in 8.0 mi Calm Calm - N/A   Mostly Cloudy
11:50 PM 78 °F - 73 °F 81% 29.90 in 6 mi North 2.2 mph - -   Scattered Clouds